Weather Roundup
Issued by NWS

Home | Current Version | Previous Version | Text Only | Print | Product List | Glossary On
Versions: 1 2 3 4 5 6 7 8 9 10 11 12 13 14 15 16 17 18 19 20 21 22 23 24 25 26 27 28 29 30 31 32 33 34 35 36 37 38 39 40 41 42 43 44 45 46 47 48 49 50
899
NZUS93 KARX 252059
HRRWXR

CURRENT HOURLY OBSERVATIONS ACROSS
MUCH OF THE UPPER MISSISSIPPI VALLEY
NATIONAL WEATHER SERVICE LA CROSSE WI
400 PM CDT WED APR 25 2018


...SOUTHEAST MINNESOTA...


CITY           SKY/WX    TMP DP  RH WIND       PRES   REMARKS
ROCHESTER      FAIR      58  30  34 VRB6      30.09F
ROCHESTER/MAYO FAIR      56  28  33 W5        30.08F
WINONA         FAIR      59  30  33 NW3       30.05F
AUSTIN         FAIR      57  34  41 N7        30.08F
ALBERT LEA     FAIR      55  28  35 W3        30.10F
DODGE CENTER   FAIR      55  28  35 NW3       30.08F
PRESTON        FAIR      57  28  33 NE5       30.07F
OWATONNA       FAIR      55  28  35 NW7       30.09F
FARIBAULT      NOT AVBL
$$

...ELSEWHERE IN MINNESOTA...


CITY           SKY/WX    TMP DP  RH WIND       PRES   REMARKS
MINNEAPOLIS    FAIR      58  22  24 CALM      30.09F
INTNL FALLS    FAIR      62  27  26 SW13G23   29.93F
DULUTH         FAIR      57  24  28 VRB6      30.03F
RED WING       FAIR      57  19  23 SW7       30.07F
REDWOOD FALLS  SUNNY     55  31  39 W7        30.11F
MANKATO        FAIR      55  32  41 VRB5      30.10F
WORTHINGTON    SUNNY     55  28  35 CALM      30.11F
FAIRMONT       SUNNY     54  33  45 NW7       30.11F
$$

...SOUTHWEST WISCONSIN...


CITY           SKY/WX    TMP DP  RH WIND       PRES   REMARKS
LA CROSSE      FAIR      60  29  30 W12       30.06F
PRAIRIE DU CHI FAIR      61  21  21 NW10      30.06F
BOSCOBEL       FAIR      63  28  26 VRB6      30.04F
LONE ROCK      NOT AVBL
PLATTEVILLE    FAIR      60  31  33 NW9       30.05F
FORT MC COY    FAIR      59  29  32 N8        30.07F
MAUSTON-NEW LI FAIR      57  29  34 NW5       30.05F
VIROQUA        FAIR      57  32  38 NW8       30.05F
WIS DELLS      FAIR      57  23  26 N7        30.06F
$$

...ELSEWHERE IN WISCONSIN...


CITY           SKY/WX    TMP DP  RH WIND       PRES   REMARKS
MILWAUKEE      FAIR      45  31  58 NE15G24   30.08F
MADISON        FAIR      60  30  32 N6        30.03F
GREEN BAY      FAIR      54  33  45 NW8       30.06F
EAU CLAIRE     NOT AVBL
BLACK RVR FLS  FAIR      60  22  23 NW6       30.07F
MEDFORD        FAIR      52  25  35 CALM      30.06F
WAUSAU         FAIR      55  24  30 N8        30.04F
WIS RAPIDS     FAIR      56  29  35 NW12      30.07F
MARSHFIELD     FAIR      55  30  38 NW8       30.05F
RICE LAKE      FAIR      54  25  31 W6        30.09F
$$

...NORTHEAST IOWA...


CITY           SKY/WX    TMP DP  RH WIND       PRES   REMARKS
WATERLOO       FAIR      62  31  31 N8        30.06F
DUBUQUE        FAIR      61  28  28 VRB3      30.04F
DECORAH        FAIR      59  30  33 N8G15     30.05F
MASON CITY     SUNNY     58  33  39 NW7       30.10F
CHARLES CITY   FAIR      59  32  36 NW6G13    30.08F
OELWEIN        FAIR      61  28  29 N9        30.06F
$$

...ELSEWHERE IN IOWA...


CITY           SKY/WX    TMP DP  RH WIND       PRES   REMARKS
DES MOINES     MOSUNNY   65  28  24 N9        30.06F
IOWA CITY      FAIR      66  29  24 N10       30.05F
FORT DODGE     SUNNY     59  31  34 VRB5      30.09F
MARSHALLTOWN   SUNNY     64  30  27 MISG      30.05F
CEDAR RAPIDS   FAIR      66  29  24 N9        30.03F
$$

...NORTHERN ILLINOIS...


CITY           SKY/WX    TMP DP  RH WIND       PRES   REMARKS
CHICAGO-OHARE  FAIR      49  31  49 NE13      30.05F
CHICAGO-MIDWAY FAIR      50  32  50 NE15G22   30.06F
MOLINE         FAIR      67  29  24 NW9       30.02F
ROCKFORD       FAIR      61  30  31 N10       30.04F
PEORIA         FAIR      63  37  38 CALM      30.02F
$$

NOTE: "FAIR" INDICATES FEW OR NO CLOUDS BELOW 12,000 FEET WITH NO
SIGNIFICANT WEATHER AND/OR OBSTRUCTIONS TO VISIBILITY. WIND
SPEEDS ARE IN MILES-PER-HOUR.




USA.gov is the U.S. government's official web portal to all federal, state and local government web resources and services.